Time,TemperatureF,DewpointF,PressureIn,WindDirection,WindDirectionDegrees,WindSpeedMPH,WindSpeedGustMPH,Humidity,HourlyPrecipIn,Conditions,Clouds,dailyrainin,SoftwareType,DateUTC
2013-02-03 00:00:00,23.0,17.2,30.05,WSW,248,0.0,0.0,78,0.00,,,0.00,Wunderground v.1.15,2013-02-03 05:00:00,
2013-02-03 00:05:00,22.9,17.1,30.05,WSW,248,0.0,0.0,78,0.00,,,0.00,Wunderground v.1.15,2013-02-03 05:05:00,
2013-02-03 00:10:00,22.9,17.4,30.05,WSW,248,0.0,0.0,79,0.00,,,0.00,Wunderground v.1.15,2013-02-03 05:10:00,
2013-02-03 00:15:00,22.9,17.4,30.05,SW,215,0.0,0.0,79,0.00,,,0.00,Wunderground v.1.15,2013-02-03 05:15:00,
2013-02-03 00:20:00,22.7,17.5,30.04,SW,229,0.0,0.0,80,0.00,,,0.00,Wunderground v.1.15,2013-02-03 05:20:00,
2013-02-03 00:30:00,22.5,17.5,30.04,SW,229,0.0,0.0,81,0.00,,,0.00,Wunderground v.1.15,2013-02-03 05:30:00,
2013-02-03 00:35:00,22.5,17.5,30.04,South,183,0.0,0.0,81,0.00,,,0.00,Wunderground v.1.15,2013-02-03 05:35:00,
2013-02-03 00:40:00,22.5,17.5,30.04,South,183,0.0,0.0,81,0.00,,,0.00,Wunderground v.1.15,2013-02-03 05:40:00,
2013-02-03 00:45:00,22.5,17.5,30.04,South,183,0.0,0.0,81,0.00,,,0.00,Wunderground v.1.15,2013-02-03 05:45:00,
2013-02-03 00:55:00,22.4,17.5,30.03,WSW,245,0.0,0.0,81,0.00,,,0.00,Wunderground v.1.15,2013-02-03 05:55:00,
2013-02-03 01:05:00,22.4,17.5,30.02,WSW,245,0.0,0.0,81,0.00,,,0.00,Wunderground v.1.15,2013-02-03 06:05:00,
2013-02-03 01:10:00,22.2,17.3,30.02,WSW,245,0.0,0.0,81,0.00,,,0.00,Wunderground v.1.15,2013-02-03 06:10:00,
2013-02-03 01:20:00,22.2,17.3,30.02,WSW,245,0.0,0.0,81,0.00,,,0.00,Wunderground v.1.15,2013-02-03 06:20:00,
2013-02-03 01:30:00,22.2,17.3,30.02,WSW,245,0.0,0.0,81,0.00,,,0.00,Wunderground v.1.15,2013-02-03 06:30:00,
2013-02-03 01:40:00,22.2,17.3,30.01,WSW,245,0.0,0.0,81,0.00,,,0.00,Wunderground v.1.15,2013-02-03 06:40:00,
2013-02-03 01:50:00,22.2,17.3,30.01,WSW,245,0.0,0.0,81,0.00,,,0.00,Wunderground v.1.15,2013-02-03 06:50:00,
2013-02-03 01:55:00,22.2,17.3,30.01,WSW,245,0.0,0.0,81,0.00,,,0.00,Wunderground v.1.15,2013-02-03 06:55:00,
2013-02-03 02:00:00,22.2,17.3,30.01,WSW,245,0.0,0.0,81,0.00,,,0.00,Wunderground v.1.15,2013-02-03 07:00:00,
2013-02-03 02:10:00,22.2,17.3,30.01,WSW,245,0.0,0.0,81,0.00,,,0.00,Wunderground v.1.15,2013-02-03 07:10:00,
2013-02-03 02:20:00,22.2,17.3,30.00,WSW,248,0.0,0.0,81,0.00,,,0.00,Wunderground v.1.15,2013-02-03 07:20:00,
2013-02-03 02:30:00,22.1,17.2,30.00,WSW,248,0.0,0.0,81,0.00,,,0.00,Wunderground v.1.15,2013-02-03 07:30:00,
2013-02-03 02:35:00,22.1,17.2,30.00,WSW,248,0.0,0.0,81,0.00,,,0.00,Wunderground v.1.15,2013-02-03 07:35:00,
2013-02-03 02:45:00,22.1,17.4,30.00,WSW,248,0.0,0.0,82,0.00,,,0.00,Wunderground v.1.15,2013-02-03 07:45:00,
2013-02-03 02:50:00,22.1,17.4,29.99,WSW,248,0.0,0.0,82,0.00,,,0.00,Wunderground v.1.15,2013-02-03 07:50:00,
2013-02-03 03:00:00,22.1,17.4,29.99,WSW,248,0.0,0.0,82,0.00,,,0.00,Wunderground v.1.15,2013-02-03 08:00:00,
2013-02-03 03:05:00,22.1,17.4,29.99,WSW,248,0.0,0.0,82,0.00,,,0.00,Wunderground v.1.15,2013-02-03 08:05:00,
2013-02-03 03:15:00,21.9,17.2,29.99,WSW,248,0.0,0.0,82,0.00,,,0.00,Wunderground v.1.15,2013-02-03 08:15:00,
2013-02-03 03:20:00,21.9,17.2,29.98,WSW,248,0.0,0.0,82,0.00,,,0.00,Wunderground v.1.15,2013-02-03 08:20:00,
2013-02-03 03:30:00,21.9,17.2,29.98,WSW,248,0.0,0.0,82,0.00,,,0.00,Wunderground v.1.15,2013-02-03 08:30:00,
2013-02-03 03:35:00,21.9,17.2,29.97,WSW,248,0.0,0.0,82,0.00,,,0.00,Wunderground v.1.15,2013-02-03 08:35:00,
2013-02-03 03:40:00,21.9,17.2,29.97,WSW,248,0.0,0.0,82,0.00,,,0.00,Wunderground v.1.15,2013-02-03 08:40:00,
2013-02-03 03:45:00,21.8,17.2,29.97,WSW,248,0.0,0.0,82,0.00,,,0.00,Wunderground v.1.15,2013-02-03 08:45:00,
2013-02-03 03:55:00,21.8,17.2,29.97,WSW,248,0.0,0.0,82,0.00,,,0.00,Wunderground v.1.15,2013-02-03 08:55:00,
2013-02-03 04:05:00,21.8,17.2,29.96,WSW,248,0.0,0.0,82,0.00,,,0.00,Wunderground v.1.15,2013-02-03 09:05:00,
2013-02-03 04:10:00,21.8,17.2,29.96,WSW,248,0.0,0.0,82,0.00,,,0.00,Wunderground v.1.15,2013-02-03 09:10:00,
2013-02-03 04:15:00,21.8,17.2,29.96,WSW,248,0.0,0.0,82,0.00,,,0.00,Wunderground v.1.15,2013-02-03 09:15:00,
2013-02-03 04:20:00,21.6,17.0,29.96,WSW,248,0.0,0.0,82,0.00,,,0.00,Wunderground v.1.15,2013-02-03 09:20:00,
2013-02-03 04:25:00,21.6,17.0,29.96,NNE,17,0.0,0.0,82,0.00,,,0.00,Wunderground v.1.15,2013-02-03 09:25:00,
2013-02-03 04:35:00,21.6,16.7,29.96,NNE,16,0.0,0.0,81,0.00,,,0.00,Wunderground v.1.15,2013-02-03 09:35:00,
2013-02-03 04:45:00,21.4,16.5,29.96,NNE,17,0.0,0.0,81,0.00,,,0.00,Wunderground v.1.15,2013-02-03 09:45:00,
2013-02-03 04:50:00,21.4,16.5,29.96,NNE,16,0.0,0.0,81,0.00,,,0.00,Wunderground v.1.15,2013-02-03 09:50:00,
2013-02-03 05:00:00,21.4,16.8,29.96,NNE,16,0.0,0.0,82,0.00,,,0.00,Wunderground v.1.15,2013-02-03 10:00:00,
2013-02-03 05:10:00,21.4,16.8,29.96,NNE,17,0.0,0.0,82,0.00,,,0.00,Wunderground v.1.15,2013-02-03 10:10:00,
2013-02-03 05:15:00,21.3,16.7,29.96,NNE,17,0.0,0.0,82,0.00,,,0.00,Wunderground v.1.15,2013-02-03 10:15:00,
2013-02-03 05:20:00,21.3,16.9,29.95,NNE,16,0.0,0.0,83,0.00,,,0.00,Wunderground v.1.15,2013-02-03 10:20:00,
2013-02-03 05:30:00,21.1,16.7,29.95,NNE,17,0.0,0.0,83,0.00,,,0.00,Wunderground v.1.15,2013-02-03 10:30:00,
2013-02-03 05:40:00,20.8,16.5,29.95,NNE,17,0.0,0.0,83,0.00,,,0.00,Wunderground v.1.15,2013-02-03 10:40:00,
2013-02-03 05:45:00,20.6,16.3,29.95,NNE,17,0.0,0.0,83,0.00,,,0.00,Wunderground v.1.15,2013-02-03 10:45:00,
2013-02-03 05:55:00,20.3,16.2,29.94,NNE,17,0.0,0.0,84,0.00,,,0.00,Wunderground v.1.15,2013-02-03 10:55:00,
2013-02-03 06:00:00,20.2,16.1,29.94,NNE,17,0.0,0.0,84,0.00,,,0.00,Wunderground v.1.15,2013-02-03 11:00:00,
2013-02-03 06:05:00,19.9,15.8,29.94,NNE,17,0.0,0.0,84,0.00,,,0.00,Wunderground v.1.15,2013-02-03 11:05:00,
2013-02-03 06:10:00,19.7,15.9,29.94,NNE,17,0.0,0.0,85,0.00,,,0.00,Wunderground v.1.15,2013-02-03 11:10:00,
2013-02-03 06:20:00,19.4,15.6,29.94,NNE,16,0.0,0.0,85,0.00,,,0.00,Wunderground v.1.15,2013-02-03 11:20:00,
2013-02-03 06:30:00,19.2,15.7,29.94,NNE,17,0.0,0.0,86,0.00,,,0.00,Wunderground v.1.15,2013-02-03 11:30:00,
2013-02-03 06:40:00,19.1,15.6,29.94,NNE,17,0.0,0.0,86,0.00,,,0.00,Wunderground v.1.15,2013-02-03 11:40:00,
2013-02-03 06:50:00,18.9,15.7,29.94,NNE,17,0.0,0.0,87,0.00,,,0.00,Wunderground v.1.15,2013-02-03 11:50:00,
2013-02-03 07:00:00,18.9,15.7,29.94,NNE,17,0.0,0.0,87,0.00,,,0.00,Wunderground v.1.15,2013-02-03 12:00:00,
2013-02-03 07:05:00,18.8,15.6,29.94,NNE,17,0.0,0.0,87,0.00,,,0.00,Wunderground v.1.15,2013-02-03 12:05:00,
2013-02-03 07:15:00,18.6,15.4,29.94,NNE,17,0.0,0.0,87,0.00,,,0.00,Wunderground v.1.15,2013-02-03 12:15:00,
2013-02-03 07:20:00,18.8,15.8,29.96,NNE,17,0.0,0.0,88,0.00,,,0.00,Wunderground v.1.15,2013-02-03 12:20:00,
2013-02-03 07:30:00,18.8,15.8,29.96,NNE,16,0.0,0.0,88,0.00,,,0.00,Wunderground v.1.15,2013-02-03 12:30:00,
2013-02-03 07:40:00,18.9,15.9,29.96,NNE,17,0.0,0.0,88,0.00,,,0.00,Wunderground v.1.15,2013-02-03 12:40:00,
2013-02-03 07:50:00,19.1,16.1,29.96,NNE,16,0.0,0.0,88,0.00,,,0.00,Wunderground v.1.15,2013-02-03 12:50:00,
2013-02-03 07:55:00,19.2,16.2,29.96,NNE,17,0.0,0.0,88,0.00,,,0.00,Wunderground v.1.15,2013-02-03 12:55:00,
2013-02-03 08:05:00,20.0,17.3,29.96,NNE,17,0.0,0.0,89,0.00,,,0.00,Wunderground v.1.15,2013-02-03 13:05:00,
2013-02-03 08:10:00,20.3,17.6,29.96,NNE,17,0.0,0.0,89,0.00,,,0.00,Wunderground v.1.15,2013-02-03 13:10:00,
2013-02-03 08:15:00,20.5,17.8,29.96,NNE,17,0.0,0.0,89,0.00,,,0.00,Wunderground v.1.15,2013-02-03 13:15:00,
2013-02-03 08:25:00,20.8,17.8,29.96,NNE,17,0.0,0.0,88,0.00,,,0.00,Wunderground v.1.15,2013-02-03 13:25:00,
2013-02-03 08:35:00,21.4,18.1,29.96,WNW,302,0.0,0.0,87,0.00,,,0.00,Wunderground v.1.15,2013-02-03 13:35:00,
2013-02-03 08:40:00,21.9,18.6,29.96,WNW,302,0.0,0.0,87,0.00,,,0.00,Wunderground v.1.15,2013-02-03 13:40:00,
2013-02-03 08:45:00,22.4,18.8,29.96,WNW,302,0.0,0.0,86,0.00,,,0.00,Wunderground v.1.15,2013-02-03 13:45:00,
2013-02-03 08:50:00,22.2,18.1,29.95,WNW,302,1.0,1.0,84,0.00,,,0.00,Wunderground v.1.15,2013-02-03 13:50:00,
2013-02-03 09:00:00,22.4,18.0,29.95,NE,49,1.0,3.0,83,0.00,,,0.00,Wunderground v.1.15,2013-02-03 14:00:00,
2013-02-03 09:10:00,22.5,17.8,29.94,NE,49,1.0,1.0,82,0.00,,,0.00,Wunderground v.1.15,2013-02-03 14:10:00,
2013-02-03 09:15:00,22.9,17.9,29.94,NE,34,1.0,3.0,81,0.00,,,0.00,Wunderground v.1.15,2013-02-03 14:15:00,
2013-02-03 09:25:00,23.0,17.5,29.94,NNE,19,2.0,2.0,79,0.00,,,0.00,Wunderground v.1.15,2013-02-03 14:25:00,
2013-02-03 09:30:00,23.5,17.9,29.94,NNE,19,1.0,1.0,79,0.00,,,0.00,Wunderground v.1.15,2013-02-03 14:30:00,
2013-02-03 09:35:00,24.2,18.3,29.94,NNE,22,0.0,1.0,78,0.00,,,0.00,Wunderground v.1.15,2013-02-03 14:35:00,
2013-02-03 09:40:00,24.2,17.4,29.94,NNE,15,1.0,1.0,75,0.00,,,0.00,Wunderground v.1.15,2013-02-03 14:40:00,
2013-02-03 09:50:00,24.2,17.4,29.93,NNE,32,1.0,1.0,75,0.00,,,0.00,Wunderground v.1.15,2013-02-03 14:50:00,
2013-02-03 10:00:00,23.9,16.8,29.93,NNE,31,1.0,1.0,74,0.00,,,0.00,Wunderground v.1.15,2013-02-03 15:00:00,
2013-02-03 10:10:00,24.4,17.3,29.93,SE,125,0.0,0.0,74,0.00,,,0.00,Wunderground v.1.15,2013-02-03 15:10:00,
2013-02-03 10:15:00,24.7,17.3,29.93,ESE,104,0.0,2.0,73,0.00,,,0.00,Wunderground v.1.15,2013-02-03 15:15:00,
2013-02-03 10:20:00,25.0,17.2,29.92,East,95,0.0,0.0,72,0.00,,,0.00,Wunderground v.1.15,2013-02-03 15:20:00,
2013-02-03 10:30:00,25.0,16.6,29.92,NE,36,0.0,0.0,70,0.00,,,0.00,Wunderground v.1.15,2013-02-03 15:30:00,
2013-02-03 10:40:00,24.8,16.4,29.92,NNW,334,1.0,1.0,70,0.00,,,0.00,Wunderground v.1.15,2013-02-03 15:40:00,
2013-02-03 10:45:00,25.0,16.6,29.92,NNW,333,0.0,4.0,70,0.00,,,0.00,Wunderground v.1.15,2013-02-03 15:45:00,
2013-02-03 10:55:00,25.3,16.5,29.91,NNE,24,0.0,1.0,69,0.00,,,0.00,Wunderground v.1.15,2013-02-03 15:55:00,
2013-02-03 11:00:00,25.4,16.6,29.91,NE,40,0.0,1.0,69,0.00,,,0.00,Wunderground v.1.15,2013-02-03 16:00:00,
2013-02-03 11:05:00,25.3,16.2,29.90,NE,38,1.0,1.0,68,0.00,,,0.00,Wunderground v.1.15,2013-02-03 16:05:00,
2013-02-03 11:15:00,25.1,15.7,29.90,NE,38,0.0,1.0,67,0.00,,,0.00,Wunderground v.1.15,2013-02-03 16:15:00,
2013-02-03 11:20:00,25.1,15.7,29.89,NE,38,0.0,2.0,67,0.00,,,0.00,Wunderground v.1.15,2013-02-03 16:20:00,
2013-02-03 11:30:00,26.0,16.5,29.89,NE,38,1.0,1.0,67,0.00,,,0.00,Wunderground v.1.15,2013-02-03 16:30:00,
2013-02-03 11:40:00,27.5,17.3,29.88,SE,136,0.0,1.0,65,0.00,,,0.00,Wunderground v.1.15,2013-02-03 16:40:00,
2013-02-03 11:50:00,28.5,17.1,29.86,NE,54,0.0,1.0,62,0.00,,,0.00,Wunderground v.1.15,2013-02-03 16:50:00,
2013-02-03 11:55:00,28.5,15.6,29.86,NE,40,0.0,1.0,58,0.00,,,0.00,Wunderground v.1.15,2013-02-03 16:55:00,
2013-02-03 12:00:00,28.7,15.4,29.86,NE,40,0.0,0.0,57,0.00,,,0.00,Wunderground v.1.15,2013-02-03 17:00:00,
2013-02-03 12:05:00,29.3,15.9,29.85,NE,40,0.0,0.0,57,0.00,,,0.00,Wunderground v.1.15,2013-02-03 17:05:00,
2013-02-03 12:10:00,29.8,16.4,29.85,NNE,13,0.0,3.0,57,0.00,,,0.00,Wunderground v.1.15,2013-02-03 17:10:00,
2013-02-03 12:20:00,29.0,16.1,29.83,NNW,343,2.0,2.0,58,0.00,,,0.00,Wunderground v.1.15,2013-02-03 17:20:00,
2013-02-03 12:25:00,28.5,15.2,29.83,NNE,32,2.0,2.0,57,0.00,,,0.00,Wunderground v.1.15,2013-02-03 17:25:00,
2013-02-03 12:30:00,28.2,15.3,29.83,NNE,12,1.0,1.0,58,0.00,,,0.00,Wunderground v.1.15,2013-02-03 17:30:00,
2013-02-03 12:40:00,28.4,15.1,29.83,West,271,1.0,1.0,57,0.00,,,0.00,Wunderground v.1.15,2013-02-03 17:40:00,
2013-02-03 12:45:00,28.5,14.8,29.83,NW,313,0.0,1.0,56,0.00,,,0.00,Wunderground v.1.15,2013-02-03 17:45:00,
2013-02-03 12:55:00,29.0,14.0,29.82,NNE,30,0.0,0.0,53,0.00,,,0.00,Wunderground v.1.15,2013-02-03 17:55:00,
2013-02-03 13:00:00,29.4,14.8,29.82,NE,40,0.0,0.0,54,0.00,,,0.00,Wunderground v.1.15,2013-02-03 18:00:00,
2013-02-03 13:05:00,30.0,14.9,29.81,NE,40,0.0,0.0,53,0.00,,,0.00,Wunderground v.1.15,2013-02-03 18:05:00,
2013-02-03 13:10:00,30.6,15.0,29.81,NE,40,0.0,2.0,52,0.00,,,0.00,Wunderground v.1.15,2013-02-03 18:10:00,
2013-02-03 13:20:00,30.0,14.5,29.80,NE,42,1.0,1.0,52,0.00,,,0.00,Wunderground v.1.15,2013-02-03 18:20:00,
2013-02-03 13:25:00,29.8,13.9,29.80,ESE,105,1.0,3.0,51,0.00,,,0.00,Wunderground v.1.15,2013-02-03 18:25:00,
2013-02-03 13:35:00,29.8,13.9,29.80,North,355,0.0,1.0,51,0.00,,,0.00,Wunderground v.1.15,2013-02-03 18:35:00,
2013-02-03 13:40:00,30.1,13.2,29.80,ENE,57,0.0,2.0,49,0.00,,,0.00,Wunderground v.1.15,2013-02-03 18:40:00,
2013-02-03 13:50:00,30.1,13.2,29.79,NNE,33,1.0,2.0,49,0.00,,,0.00,Wunderground v.1.15,2013-02-03 18:50:00,
2013-02-03 13:55:00,29.7,12.8,29.79,NNE,17,1.0,2.0,49,0.00,,,0.00,Wunderground v.1.15,2013-02-03 18:55:00,
2013-02-03 14:00:00,29.8,13.4,29.79,NE,46,1.0,1.0,50,0.00,,,0.00,Wunderground v.1.15,2013-02-03 19:00:00,
2013-02-03 14:10:00,30.0,14.0,29.78,NE,40,1.0,1.0,51,0.00,,,0.00,Wunderground v.1.15,2013-02-03 19:10:00,
2013-02-03 14:20:00,30.1,14.6,29.77,NE,37,1.0,1.0,52,0.00,,,0.00,Wunderground v.1.15,2013-02-03 19:20:00,
2013-02-03 14:30:00,29.8,12.9,29.77,NNW,346,1.0,1.0,49,0.00,,,0.00,Wunderground v.1.15,2013-02-03 19:30:00,
2013-02-03 14:35:00,29.8,13.9,29.77,NW,311,1.0,1.0,51,0.00,,,0.00,Wunderground v.1.15,2013-02-03 19:35:00,
2013-02-03 14:45:00,29.8,13.4,29.77,NE,38,1.0,1.0,50,0.00,,,0.00,Wunderground v.1.15,2013-02-03 19:45:00,
2013-02-03 14:50:00,29.8,13.9,29.77,NE,36,1.0,1.0,51,0.00,,,0.00,Wunderground v.1.15,2013-02-03 19:50:00,
2013-02-03 14:55:00,30.0,13.6,29.77,NNE,13,0.0,4.0,50,0.00,,,0.00,Wunderground v.1.15,2013-02-03 19:55:00,
2013-02-03 15:05:00,30.1,13.2,29.77,NE,49,1.0,3.0,49,0.00,,,0.00,Wunderground v.1.15,2013-02-03 20:05:00,
2013-02-03 15:10:00,30.1,13.2,29.77,East,98,1.0,1.0,49,0.00,,,0.00,Wunderground v.1.15,2013-02-03 20:10:00,
2013-02-03 15:20:00,30.1,13.2,29.76,NE,35,0.0,2.0,49,0.00,,,0.00,Wunderground v.1.15,2013-02-03 20:20:00,
2013-02-03 15:30:00,30.6,13.7,29.76,NE,34,0.0,0.0,49,0.00,,,0.00,Wunderground v.1.15,2013-02-03 20:30:00,
2013-02-03 15:40:00,30.6,13.2,29.76,East,89,0.0,0.0,48,0.00,,,0.00,Wunderground v.1.15,2013-02-03 20:40:00,
2013-02-03 15:50:00,30.3,12.9,29.76,NW,322,0.0,1.0,48,0.00,,,0.00,Wunderground v.1.15,2013-02-03 20:50:00,
2013-02-03 16:00:00,30.3,13.9,29.76,NE,34,0.0,0.0,50,0.00,,,0.00,Wunderground v.1.15,2013-02-03 21:00:00,
2013-02-03 16:10:00,30.3,13.4,29.75,NE,34,0.0,0.0,49,0.00,,,0.00,Wunderground v.1.15,2013-02-03 21:10:00,
2013-02-03 16:15:00,30.3,13.4,29.75,NE,45,0.0,0.0,49,0.00,,,0.00,Wunderground v.1.15,2013-02-03 21:15:00,
2013-02-03 16:25:00,29.7,12.8,29.75,NE,55,1.0,1.0,49,0.00,,,0.00,Wunderground v.1.15,2013-02-03 21:25:00,
2013-02-03 16:30:00,29.5,12.7,29.75,NE,46,1.0,1.0,49,0.00,,,0.00,Wunderground v.1.15,2013-02-03 21:30:00,
2013-02-03 16:40:00,29.4,13.0,29.74,NE,46,0.0,0.0,50,0.00,,,0.00,Wunderground v.1.15,2013-02-03 21:40:00,
2013-02-03 16:50:00,29.3,13.4,29.74,NE,55,0.0,0.0,51,0.00,,,0.00,Wunderground v.1.15,2013-02-03 21:50:00,
2013-02-03 17:00:00,29.0,13.6,29.74,NE,51,0.0,0.0,52,0.00,,,0.00,Wunderground v.1.15,2013-02-03 22:00:00,
2013-02-03 17:10:00,28.7,13.3,29.74,NE,43,0.0,0.0,52,0.00,,,0.00,Wunderground v.1.15,2013-02-03 22:10:00,
2013-02-03 17:20:00,28.4,13.0,29.74,NE,43,0.0,0.0,52,0.00,,,0.00,Wunderground v.1.15,2013-02-03 22:20:00,
2013-02-03 17:25:00,28.4,13.4,29.74,NE,43,0.0,0.0,53,0.00,,,0.00,Wunderground v.1.15,2013-02-03 22:25:00,
2013-02-03 17:30:00,28.2,13.2,29.74,NE,43,0.0,0.0,53,0.00,,,0.00,Wunderground v.1.15,2013-02-03 22:30:00,
2013-02-03 17:40:00,27.9,13.4,29.74,NE,43,0.0,0.0,54,0.00,,,0.00,Wunderground v.1.15,2013-02-03 22:40:00,
2013-02-03 17:50:00,27.8,13.7,29.74,NE,43,0.0,0.0,55,0.00,,,0.00,Wunderground v.1.15,2013-02-03 22:50:00,
2013-02-03 18:00:00,27.6,13.9,29.74,NE,43,0.0,0.0,56,0.00,,,0.00,Wunderground v.1.15,2013-02-03 23:00:00,
2013-02-03 18:05:00,27.6,13.9,29.75,NE,43,0.0,0.0,56,0.00,,,0.00,Wunderground v.1.15,2013-02-03 23:05:00,
2013-02-03 18:15:00,27.5,13.8,29.75,NE,43,0.0,0.0,56,0.00,,,0.00,Wunderground v.1.15,2013-02-03 23:15:00,
2013-02-03 18:20:00,27.3,14.1,29.75,NE,43,0.0,0.0,57,0.00,,,0.00,Wunderground v.1.15,2013-02-03 23:20:00,
2013-02-03 18:30:00,27.2,14.0,29.75,NE,43,0.0,0.0,57,0.00,,,0.00,Wunderground v.1.15,2013-02-03 23:30:00,
2013-02-03 18:40:00,27.0,14.6,29.75,NE,43,0.0,0.0,59,0.00,,,0.00,Wunderground v.1.15,2013-02-03 23:40:00,
2013-02-03 18:45:00,26.9,14.9,29.75,NE,43,0.0,0.0,60,0.00,,,0.00,Wunderground v.1.15,2013-02-03 23:45:00,
2013-02-03 18:55:00,26.7,14.7,29.75,NE,43,0.0,0.0,60,0.00,,,0.00,Wunderground v.1.15,2013-02-03 23:55:00,
2013-02-03 19:05:00,26.4,14.4,29.75,NE,43,0.0,0.0,60,0.00,,,0.00,Wunderground v.1.15,2013-02-04 00:05:00,
2013-02-03 19:15:00,26.3,14.7,29.75,NE,43,0.0,0.0,61,0.00,,,0.00,Wunderground v.1.15,2013-02-04 00:15:00,
2013-02-03 19:25:00,26.1,14.8,29.75,NE,43,0.0,0.0,62,0.00,,,0.00,Wunderground v.1.15,2013-02-04 00:25:00,
2013-02-03 19:35:00,25.8,14.9,29.75,NE,43,0.0,0.0,63,0.00,,,0.00,Wunderground v.1.15,2013-02-04 00:35:00,
2013-02-03 19:40:00,25.7,15.2,29.75,NE,43,0.0,0.0,64,0.00,,,0.00,Wunderground v.1.15,2013-02-04 00:40:00,
2013-02-03 19:50:00,25.3,15.2,29.75,NE,43,0.0,0.0,65,0.00,,,0.00,Wunderground v.1.15,2013-02-04 00:50:00,
2013-02-03 19:55:00,25.1,15.3,29.75,NE,43,0.0,0.0,66,0.00,,,0.00,Wunderground v.1.15,2013-02-04 00:55:00,
2013-02-03 20:00:00,25.0,15.2,29.75,NE,43,0.0,0.0,66,0.00,,,0.00,Wunderground v.1.15,2013-02-04 01:00:00,
2013-02-03 20:05:00,24.7,15.3,29.75,NE,43,0.0,0.0,67,0.00,,,0.00,Wunderground v.1.15,2013-02-04 01:05:00,
2013-02-03 20:10:00,24.5,15.4,29.75,NE,43,0.0,0.0,68,0.00,,,0.00,Wunderground v.1.15,2013-02-04 01:10:00,
2013-02-03 20:20:00,24.2,15.5,29.75,NE,43,0.0,0.0,69,0.00,,,0.00,Wunderground v.1.15,2013-02-04 01:20:00,
2013-02-03 20:25:00,24.2,15.5,29.75,NE,43,0.0,0.0,69,0.00,,,0.00,Wunderground v.1.15,2013-02-04 01:25:00,
2013-02-03 20:35:00,24.1,15.7,29.75,NE,43,0.0,0.0,70,0.00,,,0.00,Wunderground v.1.15,2013-02-04 01:35:00,
2013-02-03 20:40:00,23.9,15.9,29.75,NE,43,0.0,0.0,71,0.00,,,0.00,Wunderground v.1.15,2013-02-04 01:40:00,
2013-02-03 20:45:00,23.9,15.9,29.75,NE,43,0.0,0.0,71,0.00,,,0.00,Wunderground v.1.15,2013-02-04 01:45:00,
2013-02-03 20:50:00,23.8,15.8,29.76,NE,43,0.0,0.0,71,0.00,,,0.00,Wunderground v.1.15,2013-02-04 01:50:00,
2013-02-03 20:55:00,23.6,15.6,29.76,NE,43,0.0,0.0,71,0.00,,,0.00,Wunderground v.1.15,2013-02-04 01:55:00,
2013-02-03 21:00:00,23.6,15.9,29.76,NE,43,0.0,0.0,72,0.00,,,0.00,Wunderground v.1.15,2013-02-04 02:00:00,
2013-02-03 21:10:00,23.3,15.9,29.76,NE,43,0.0,0.0,73,0.00,,,0.00,Wunderground v.1.15,2013-02-04 02:10:00,
2013-02-03 21:15:00,23.2,15.8,29.76,NE,43,0.0,0.0,73,0.00,,,0.00,Wunderground v.1.15,2013-02-04 02:15:00,
2013-02-03 21:25:00,23.2,16.1,29.76,NE,43,0.0,0.0,74,0.00,,,0.00,Wunderground v.1.15,2013-02-04 02:25:00,
2013-02-03 21:30:00,23.0,15.9,29.76,NE,43,0.0,0.0,74,0.00,,,0.00,Wunderground v.1.15,2013-02-04 02:30:00,
2013-02-03 21:35:00,23.0,15.9,29.76,NE,43,0.0,0.0,74,0.00,,,0.00,Wunderground v.1.15,2013-02-04 02:35:00,
2013-02-03 21:45:00,22.7,15.7,29.76,NE,43,0.0,0.0,74,0.00,,,0.00,Wunderground v.1.15,2013-02-04 02:45:00,
2013-02-03 21:50:00,22.5,15.5,29.76,NE,43,0.0,0.0,74,0.00,,,0.00,Wunderground v.1.15,2013-02-04 02:50:00,
2013-02-03 21:55:00,22.7,15.0,29.76,NE,43,0.0,0.0,72,0.00,,,0.00,Wunderground v.1.15,2013-02-04 02:55:00,
2013-02-03 22:05:00,23.2,14.2,29.75,NE,43,0.0,0.0,68,0.00,,,0.00,Wunderground v.1.15,2013-02-04 03:05:00,
2013-02-03 22:10:00,23.5,13.8,29.75,NE,43,0.0,0.0,66,0.00,,,0.00,Wunderground v.1.15,2013-02-04 03:10:00,
2013-02-03 22:20:00,23.6,13.2,29.75,NE,43,0.0,0.0,64,0.00,,,0.00,Wunderground v.1.15,2013-02-04 03:20:00,
2013-02-03 22:25:00,23.8,13.0,29.75,NE,43,0.0,0.0,63,0.00,,,0.00,Wunderground v.1.15,2013-02-04 03:25:00,
2013-02-03 22:30:00,23.9,12.8,29.75,NE,43,0.0,0.0,62,0.00,,,0.00,Wunderground v.1.15,2013-02-04 03:30:00,
2013-02-03 22:35:00,23.9,12.4,29.75,NE,43,0.0,0.0,61,0.00,,,0.00,Wunderground v.1.15,2013-02-04 03:35:00,
2013-02-03 22:45:00,23.9,12.4,29.75,NE,43,0.0,0.0,61,0.00,,,0.00,Wunderground v.1.15,2013-02-04 03:45:00,
2013-02-03 22:55:00,23.8,12.3,29.75,West,267,0.0,2.0,61,0.00,,,0.00,Wunderground v.1.15,2013-02-04 03:55:00,
2013-02-03 23:00:00,23.8,12.3,29.75,West,267,0.0,0.0,61,0.00,,,0.00,Wunderground v.1.15,2013-02-04 04:00:00,
2013-02-03 23:10:00,23.5,12.0,29.74,West,267,0.0,0.0,61,0.00,,,0.00,Wunderground v.1.15,2013-02-04 04:10:00,
2013-02-03 23:15:00,23.3,11.8,29.74,West,267,0.0,0.0,61,0.00,,,0.00,Wunderground v.1.15,2013-02-04 04:15:00,
2013-02-03 23:25:00,23.2,11.7,29.74,West,267,0.0,1.0,61,0.00,,,0.00,Wunderground v.1.15,2013-02-04 04:25:00,
2013-02-03 23:30:00,23.2,11.7,29.74,West,267,0.0,0.0,61,0.00,,,0.00,Wunderground v.1.15,2013-02-04 04:30:00,
2013-02-03 23:35:00,23.0,11.5,29.75,West,266,0.0,0.0,61,0.00,,,0.00,Wunderground v.1.15,2013-02-04 04:35:00,
2013-02-03 23:40:00,23.0,11.5,29.75,West,266,0.0,0.0,61,0.00,,,0.00,Wunderground v.1.15,2013-02-04 04:40:00,
2013-02-03 23:50:00,23.0,11.5,29.75,West,266,0.0,0.0,61,0.00,,,0.00,Wunderground v.1.15,2013-02-04 04:50:00,